Tennessee Business Entities
Logistic

Jurisdiction: Tennessee State
Source: Tennessee Secretary of State

This dataset includes 1.55 million business entities (corporations, LLCs, etc.) registered with Tennessee Secretary of State. Each business is registered with business name, principal address, mailing address, owner name, owner address, entity status, type and creation date.

logistic · Search Result

Entity Name Office Address Start Date
AVENGER LOGISTICS, LLC 2016-01-19
KLA Logistics Inc 3269 Snow Park Ln E, Zaundra Killebrew, Memphis, TN 38119-4005 2016-01-19
AUNSHE LOGISTICS LLC 3211 Wood Ave, Chattanooga, TN 37406-4066 2016-01-14
901 LOGISTICS LLC 11800 Etheridge Pl, Arlington, TN 38002-8182 2016-01-14
Transportation Logistics Inc 2860 Bartlett Rd, Ste 11, Memphis, TN 38134-4566 2016-01-13
CC Fencing & Logistics, LLC 709 Newhall Dr, Nashville, TN 37206-1539 2016-01-12
roadrunner transportation logistics llc 714 Woods Dr, Thomas A Atkins, Chattanooga, TN 37411-2930 2016-01-12
Dependable Logistics, LLC 10208 Sterling Ridge Dr, Cordova, TN 38018-3613 2016-01-12
JONES LOGISTICS SERVICES LLC 1200 Industrial Park Rd, Clay Jones, South Fulton, TN 38257-2700 2016-01-11
Pointer Logistics, LLC 4295 Cromwell Rd, Ste 308, Chattanooga, TN 37421-2163 2016-01-11
ARISTOCRAT LOGISTICS PROFESSIONAL CORPORATION 5113 Highway 58, Ste 214, Paulina Arrom, Chattanooga, TN 37416-1666 2016-01-08
JAG Logistics llc 381 Studer Rd, Jason Guy, Manchester, TN 37355-5097 2016-01-08
DOJAH LOGISTICS INC 2394 Hanover Dr, Augustine Egedegbe, Memphis, TN 38119-7120 2016-01-07
BTI Logistics, LLC 1409 Tempany Ct, Nashville, TN 37207-1768 2016-01-07
BIRDS NEST LOGISTICS, INC 75 Stafford Store Rd, Kathy Stark Or Tim Martin, Mc Kenzie, TN 38201-7219 2016-01-07
BAD WOLF LOGISTICS INC 475 Bettis Rd, Lebanon, TN 37090-8012 2016-01-06
IOK Logistics, LLC 2016-01-06
Regency Logistics, LLC 511 Union St, Ste 2700, Nashville, TN 37219-1791 2016-01-04
TDS Logistics, LLC 511 Union St, Ste 2700, Nashville, TN 37219-1791 2016-01-04
Unite Us Logistics Incorporated 5378 Finchwood Ave, Memphis, TN 38115-3620 2016-01-03
Omega Waste Logistics, LLC 141 Settlers Rd, Harriman, TN 37748-4911 2015-12-30
LSM Logistics LLC 7765 Widgeon Lake Cv, Lakebra Muhammad, Cordova, TN 38016-5716 2015-12-26
T.I.J. Logistic LLC 7472 Logancrest Ln, Memphis, TN 38119-9016 2015-12-17
The Wright One Logistics, Inc. 224 Spring Run Dr, Eads, TN 38028-6971 2015-12-17
SpyderOak Practice Logistics, LLC 415 Church St, Apt 2403, David Wilson, Nashville, TN 37219-1843 2015-12-17
celadon logistics services corp 8227 Gallaher Station Dr, Knoxville, TN 37919-2019 2015-12-16
SSB Logistics, LLC 3560 Lenox Rd Ne, Ste 1100, Tax Dept, Atlanta, GA 30326-4266 2015-12-15
Unique Logistics Solutions, LLC 8247 River Creek Cv, Cordova, TN 38016-8545 2015-12-14
Bassline Logistics LLC 416 Aa Deakins Rd, Jonesborough, TN 37659-3451 2015-12-14
WOODHALL LOGISTICS INC 1013 Blanton Dr, Chattanooga, TN 37412-3927 2015-12-11
Golda Logistic Company 879 Highway 126, Bristol, TN 37620-3308 2015-12-11
NOOGANASH LOGISTICS INC 1013 Blanton Dr, Chattanooga, TN 37412-3927 2015-12-11
AHC Logistics, LLC 5596 Riverview Rd Se, Mableton, GA 30126-2914 2015-12-10
124 Logistics LLC 3060 Peachtree Rd Nw, Atlanta, GA 30305-2234 2015-12-08
EBS Logistics LLC 307 E Broad St, Dickson, TN 37055-2405 2015-12-03
The Way Transportation & Logistics, LLC 5521 Murray Ave, Memphis, TN 38119-3717 2015-12-03
Lion's Pride Logistics, LLC 705 Gulfwood Rd, Knoxville, TN 37923-2216 2015-12-02
TC E-Logistics LLC 106 S Laurel Cir, Columbia, TN 38401-2059 2015-12-02
Pinnacle Workforce Logistics, L.L.C. 6525 The Corners Pkwy, Ste 520, Norcross, GA 30092-3353 2015-11-30
Angel Logistics LLC 259 Pleasant Grove Rd, Bluff City, TN 37618-1726 2015-11-25
Via Rail Logistics LLC 14727 Maribel Rd, Michelle, Maribel, WI 54227-9315 2015-11-23
Blue Ark Logistics Inc. 3199 Beaumont Centre Cir, Lexington, KY 40513-1957 2015-11-23
DosSantos Logistics, LLC 8501 Providence Rd, Ooltewah, TN 37363-6620 2015-11-23
T-N-M Logistics LLC 9250 Feathers Chapel Dr, Oakland, TN 38060-3000 2015-11-13
P6 Logistics LLC 8901 Potomac Dr, P6 Logistics, Chattanooga, TN 37421-2008 2015-11-12
CP Logistics Smyrna, LLC 7887 E Belleview Ave, Ste 475, Englewood, CO 80111-6033 2015-11-09
Express Logistics & Permits Inc. 5690 Hinton Pl, Memphis, TN 38119-7009 2015-11-09
K&K Logistics, LLC 74 W Point Dr, Fayetteville, TN 37334-6024 2015-11-07
64 WAYZ Logistics Corporation 8112 Cooper Dr, Murfreesboro, TN 37129-8156 2015-11-06
McMillon Transportation & Logistics, LLC 988 Russell Farms Rd, Collierville, TN 38017-6941 2015-11-03
Geist Logistics, LLC 415 E 31st St, Anderson, IN 46016-5328 2015-11-02
Aspire Customer Logistics, LLC 1017 Kathleen Dr, Spring Hill, TN 37174-5149 2015-10-27
Blue Jewel Logistics, LLC 7685 Fairway Forest Dr W, Cordova, TN 38016-0700 2015-10-19
TCW Logistics, Inc. 22 Stanley St, Nashville, TN 37210-2133 2015-10-19
Stewart & Hamilton Logistics LLC 4837 Wemberley Dr, Memphis, TN 38125-3355 2015-10-18
A&R LOGISTICS, INC. (Qualified Under An Assumed Name) 600 N Hurstbourne Pkwy, Ste 110, Louisville, KY 40222-5386 2015-10-16
T & S LOGISTICS INC 7469 Southwind Cv, Memphis, TN 38125-3542 2015-10-12
Old Hickory Logistics LLC 12500 West Creek Pkwy, Richmond, VA 23238-1110 2015-10-12
MEN OF FAITH LOGISTICS,LLC 5253 Rice Rd, Antioch, TN 37013-2009 2015-10-09
Automotive Quality and Logistics, Inc. 14744 Jib St, Plymouth, MI 48170-6000 2015-10-09
Applied Logistics Management, LLC 2589 Buena Vista Rd, Bethel Springs, TN 38315-2609 2015-10-05
CP Logistics Skyline Distribution Center, LLC 7887 E Belleview Ave, Ste 475, Englewood, CO 80111-6033 2015-10-05
MAYA LOGISTIC LLC 3638 Jackson Ave, Sergio Montes, Memphis, TN 38108 2015-10-05
Bullett Logistics Inc 297 Hopper Cir, Jeff Morgan, Speedwell, TN 37870-7209 2015-09-28
FRY LOGISTICS LLC 840 Heritage Pointe Cir, Clarksville, TN 37042-0819 2015-09-25
Open Lane Logistics Inc. 3990 Bobby Jones Rd, Memphis, TN 38125-4620 2015-09-21
Tri-State Logistics Enterprises LLC 4275 Windermere Rd, Starkeshia Wilson, Memphis, TN 38128-2063 2015-09-17
Expedient Logistics, LLC 3177 Toby Ln, Memphis, TN 38111-3927 2015-09-17
Logistics Solutions LLC 2812 Bransford Ave, Nashville, TN 37204-3102 2015-09-16
Cambridge Logistics, Inc. 22 N Front St, Eddie Moore, Memphis, TN 38103-2162 2015-09-15
Bryant Davis Logistics, LLC 2816 Herndon Dr, Clarksville, TN 37043-6268 2015-09-15
JD's Custom Logistics, Inc 172 Carnavon Pkwy, Nashville, TN 37205-3942 2015-09-08
Casino Logistics Inc 510 Airpark Center Dr, Nashville, TN 37217-2962 2015-09-02
46 Logistics, Inc 1400 Rosa L Parks Blvd, Apt 318, Nashville, TN 37208-2567 2015-08-31
Pinnacle Logistics Systems Incorporated 2964 S 3rd St, Memphis, TN 38109-2954 2015-08-28
Z LOGISTICS, LLC 3666 Jackson Ave, Dinora Zepeda, Memphis, TN 38108-2015 2015-08-25
GOD'S Transportation Logistics LLC 5008 Royston Loop, Charles Caldwell, Memphis, TN 38125-2946 2015-08-25
Extra Mile Logistics LLC 433 Old Denmark Rd, Jackson, TN 38301-9145 2015-08-22
Reid Logistics LLC 1465 Haverwood Ave, Reid Logistics LLC, Memphis, TN 38116-7929 2015-08-20
J.B.O. Logistics, LLC 8604 Burleson Ln, Murfreesboro, TN 37129-8145 2015-08-19
WILSON CONTINENTAL LOGISTICS SERVICES L.L.P. 4635 Benoit Dr, Memphis, TN 38141-7819 2015-08-17
Sanders Logistic LLC 425 Hampstead S, Antioch, TN 37013-2838 2015-08-13
Global Solutions & Logistics LLC 1600 N Railroad St, Phenix City, AL 36867-4362 2015-08-13
Dedicated LTL Logistics LLC 125 Phillips Hollow Rd, Westmoreland, TN 37186-5018 2015-08-13
AMG LOGISTICS INC 3860 Cross Ln Se, Cleveland, TN 37323-6105 2015-08-13
LEFT LANE LOGISTICS LLC 664 Walnut Grove Rd, Christiana, TN 37037-6044 2015-08-12
Express Logistic TN LLC 3415 Donna Kay Dr, Nashville, TN 37211-3530 2015-08-11
Better World Logistics, Inc. 1907 Isabelle Ln, Antioch, TN 37013-7324 2015-08-11
J & J Journey Logistics and Distribution LLC 832 Tiny Town Rd, Clarksville, TN 37042-7777 2015-08-07
GlobalStar Logistics, LLC 1511 Moshina Rd, Knoxville, TN 37914-9402 2015-08-07
Thompson Logistical Holdings LLC 103 Fowler Ford Rd, Portland, TN 37148-1906 2015-08-07
Midwest Logistics Systems Ltd. 7021 State Route 703, Ellen Welker, Celina, OH 45822-2777 2015-07-31
T&C Specialized Logistics LLC 2272 Cages Bend Rd, Gallatin, TN 37066-5815 2015-07-27
CENTER POINT LOGISTICS, LLC 507 Regal Dr, Murfreesboro, TN 37129-5234 2015-07-24
BMG Logistics, LLC 3380 Pearson Rd, Tyrone Burroughs, Memphis, TN 38118-1631 2015-07-24
CR Logistics LLC 105 Ardmore Hwy, Fayetteville, TN 37334-3755 2015-07-23
Primetime Logistics LLC 4085 Wahl St, Milan, TN 38358-5556 2015-07-22
BARRETTE LOGISTICS, INC. 7830 Freeway Cir, Middleburg Heights, OH 44130-6307 2015-07-13
Turner & Son's Logistic Transportation LLC 1604 Pearl St, Nashville, TN 37203-2931 2015-07-08
NOT OF YOURSELF LOGISTICS LLC 4595 Water Mill Dr, Apt 101, Memphis, TN 38116-7491 2015-07-03